| time (UTC) | temp F | wind direction | speed MPH | gust MPH | rain 1hr in | rain 24hr in | rain mn in | humidity % | barometer mb |
| 20260508110049 | 70 | 192 | 4.0 | 7.0 | 0.00 | 0.00 | 0.00 | 65 | 1013.7 |
| 20260508103019 | 69 | 231 | 2.0 | 6.0 | 0.00 | 0.00 | 0.00 | 66 | 1013.8 |
| 20260508100048 | 69 | 235 | 2.0 | 7.0 | 0.00 | 0.00 | 0.00 | 67 | 1013.8 |
| 20260508093047 | 67 | 196 | 0.0 | 4.0 | 0.00 | 0.00 | 0.00 | 68 | 1013.7 |
| 20260508083047 | 69 | 207 | 6.0 | 6.0 | 0.00 | 0.00 | 0.00 | 63 | 1013.5 |
| 20260508080046 | 69 | 221 | 1.0 | 3.0 | 0.00 | 0.00 | 0.00 | 61 | 1013.0 |
| 20260508073046 | 67 | 215 | 1.0 | 3.0 | 0.00 | 0.00 | 0.00 | 63 | 1012.8 |
| 20260508070045 | 66 | 216 | 2.0 | 4.0 | 0.00 | 0.00 | 0.00 | 61 | 1012.6 |
| 20260508063045 | 65 | 265 | 2.0 | 2.0 | 0.00 | 0.00 | 0.00 | 64 | 1012.6 |
| 20260508053044 | 62 | 267 | 0.0 | 0.0 | 0.00 | 0.00 | 0.00 | 68 | 1011.8 |
| 20260508050043 | 61 | 267 | 0.0 | 3.0 | 0.00 | 0.00 | 0.00 | 67 | 1011.5 |
| 20260508043042 | 61 | 258 | 3.0 | 3.0 | 0.00 | 0.00 | 0.00 | 61 | 1011.5 |
| 20260508040042 | 62 | 258 | 0.0 | 1.0 | 0.00 | 0.00 | 0.00 | 55 | 1011.2 |
| 20260508030041 | 62 | 258 | 0.0 | 0.0 | 0.00 | 0.00 | 0.00 | 52 | 1010.6 |
| 20260508020039 | 61 | 258 | 2.0 | 4.0 | 0.00 | 0.00 | 0.00 | 52 | 1010.4 |
| 20260508010039 | 61 | 254 | 0.0 | 3.0 | 0.00 | 0.00 | 0.00 | 59 | 1010.8 |
| 20260508003038 | 61 | 254 | 1.0 | 3.0 | 0.00 | 0.00 | 0.00 | 60 | 1010.6 |
| 20260508000037 | 61 | 254 | 1.0 | 3.0 | 0.00 | 0.00 | 0.00 | 64 | 1010.7 |
| 20260507233037 | 60 | 255 | 0.0 | 1.0 | 0.00 | 0.00 | 0.00 | 68 | 1010.9 |
| 20260507230036 | 61 | 242 | 4.0 | 4.0 | 0.00 | 0.00 | 0.00 | 69 | 1011.6 |
| 20260507223035 | 63 | 227 | 2.0 | 3.0 | 0.00 | 0.00 | 0.00 | 64 | 1012.0 |
| 20260507220035 | 63 | 221 | 3.0 | 3.0 | 0.00 | 0.00 | 0.00 | 65 | 1012.4 |
| 20260507210034 | 64 | 245 | 3.0 | 5.0 | 0.00 | 0.00 | 0.00 | 59 | 1011.3 |
| 20260507203034 | 64 | 239 | 0.0 | 2.0 | 0.00 | 0.00 | 0.00 | 59 | 1010.9 |
| 20260507200033 | 65 | 232 | 0.0 | 1.0 | 0.00 | 0.00 | 0.00 | 60 | 1011.0 |
| 20260507193032 | 65 | 219 | 1.0 | 2.0 | 0.00 | 0.00 | 0.00 | 61 | 1010.9 |
| 20260507190032 | 66 | 215 | 2.0 | 4.0 | 0.00 | 0.00 | 0.00 | 61 | 1010.6 |
| 20260507183031 | 66 | 202 | 2.0 | 3.0 | 0.00 | 0.00 | 0.00 | 62 | 1010.2 |
| 20260507180031 | 67 | 203 | 5.0 | 5.0 | 0.00 | 0.00 | 0.00 | 61 | 1010.2 |
| 20260507173030 | 68 | 216 | 3.0 | 6.0 | 0.00 | 0.00 | 0.00 | 58 | 1010.0 |
| 20260507163029 | 70 | 197 | 3.0 | 5.0 | 0.00 | 0.00 | 0.00 | 50 | 1009.7 |
| 20260507150027 | 73 | 284 | 7.0 | 7.0 | 0.00 | 0.00 | 0.00 | 46 | 1009.3 |
| 20260507143027 | 75 | 213 | 3.0 | 4.0 | 0.00 | 0.00 | 0.00 | 45 | 1010.1 |
| 20260507140027 | 76 | 220 | 10.0 | 11.0 | 0.00 | 0.00 | 0.00 | 46 | 1010.1 |
| 20260507120025 | 73 | 319 | 1.0 | 4.0 | 0.00 | 0.00 | 0.00 | 48 | 1010.2 |
| 20260507113024 | 73 | 315 | 2.0 | 5.0 | 0.00 | 0.00 | 0.00 | 47 | 1010.4 |